DMSP 5D-2 F13 DEB

Satellite information

Favourite Embed

Satellite Type and Status

DEBRISIN ORBIT

Key statistics

Satellite DMSP 5D-2 F13 DEB at a glance.

Uptime

11003

Days in orbit

Revolutions

≈ 14.5

Per day

Orbit

SSO

Sun Synchronous Orbit

Inclination

98.6

Latest

Satellite identification and parameters

Extended collection of information and parameters for DMSP 5D-2 F13 DEB.

Object identification

Identified? True

Debris? True

Object name: DMSP 5D-2 F13 DEB

International designator: 1995-015EK

Object number (NORAD): 40576

Object ID (CCSDS): 40576

Country: UNITED STATES OF AMERICA (US)

Current information (Y/N): Y

RCS size: SMALL

Orbital parameters

Period: 99.301 minutes

Inclination: 98.5798 deg

SMA: 7103.358 km

Apoapsis: 741.459 km

Periapsis: 708.987 km

RAAN: 178.0988 deg

Eccentricy: 0.0022857

Argument of periapsis: 327.0213 deg

Mean anomaly: 32.9554 deg

Mean motion: 14.50130953 rev/day

Mean motion (dot): 0.00010589 rev/day2

B* drag term: 0.002726 1/REarth

Two-line elements (TLE)

Creation date: May 7, 2025, 3:14 a.m.

Reference frame: TEME

Reference center: EARTH

Epoch: May 6, 2025, 2:15 a.m. UTC

TLE line 0: 0 DMSP 5D-2 F13 DEB

TLE line 1: 1 40576U 95015EK 25126.09422780 .00010589 00000-0 27260-2 0 9992

TLE line 2: 2 40576 98.5798 178.0988 0022857 327.0213 32.9554 14.50130953526319

Live tracking on map

Real-time ground track for satellite DMSP 5D-2 F13 DEB.

In-orbit conjunctions

A list of the most updated potential collisions computed for object DMSP 5D-2 F13 DEB.

Target Orbit TCA Probability of collision Miss distance Type
CZ-6A DEB LEO 2024-12-19 02:23:15 0.0003289622 406.0 (m) DEBRIS
PSLV R/B MEO 2024-11-15 03:41:18 0.0001880013 275.0 (m) ROCKET BODY
ASUSAT SSO 2024-11-14 15:30:43 0.0002072104 312.0 (m) PAYLOAD
COSMOS 2251 DEB LEO 2024-09-25 02:42:42 0.0001880397 885.0 (m) DEBRIS
SUNSAT SSO 2024-07-30 11:26:51 0.0001171452 120.0 (m) PAYLOAD

Associated space launch

Military meteorological satellite

DMSP 5D-2 F13 DEB was lifted into orbit during the mission ‘Atlas E | DMSP-5D2 F13’, on board a Atlas E space rocket.

The launch took place on March 24, 1995, 2:05 p.m. from Space Launch Complex 3W.

For more information about the launch, click the button.

Launch to space Atlas E | DMSP-5D2 F13
Atlas E | DMSP-5D2 F13

Agency: N/A

Status: Launch Successful

Launch date: March 24, 1995, 2:05 p.m. UTC

Rocket: Atlas E

Launch pad: Space Launch Complex 3W

Location: Vandenberg SFB, CA, USA

...

Latest news about this satellite

There are no fresh news available about this satellite. Check back as we update our databases every day.


Newsletter sign-up

Weekly statistics, charts and insights to help you stay on top of the space industry.